User: anonymous   Login
Location: Great Northern Moose Lodge
(44.6765°N, 71.1811°W)
Time: 18:47:52
(UTC-05:00)
Language:

Terra - Orbit

View from above orbital plane
View from above orbital plane
View from above satellite
View from above satellite

Ground track
Ground track

The orbit data is extracted from the following two-line orbital elements,

1 25994U 99068A   16338.77148149  .00000242  00000-0  63769-4 0  9996
2 25994  98.2072  50.6108 0000694  61.3484 298.7770 14.57112067902212
Epoch (UTC): 03 December 2016 18:30:56
Eccentricity: 0.0000694
inclination: 98.2072°
perigee height: 702 km
apogee height: 703 km
right ascension of ascending node: 50.6108°
argument of perigee: 61.3484°
revolutions per day: 14.57112067
mean anomaly at epoch: 298.7770°
orbit number at epoch: 90221

The dashed part of the orbit path shows where the satellite is in the earth's shadow,  

DLR